EDT,Max TemperatureF,Mean TemperatureF,Min TemperatureF,Max Dew PointF,MeanDew PointF,Min DewpointF,Max Humidity, Mean Humidity, Min Humidity, Max Sea Level PressureIn, Mean Sea Level PressureIn, Min Sea Level PressureIn, Max VisibilityMiles, Mean VisibilityMiles, Min VisibilityMiles, Max Wind SpeedMPH, Mean Wind SpeedMPH, Max Gust SpeedMPH,PrecipitationIn, CloudCover, Events, WindDirDegrees
2013-6-1,93,81,69,70,65,61,88,60,38,30.07,30.01,29.94,10,10,10,12,7,17,0.00,0,,202
2013-6-2,84,78,69,70,65,63,88,70,57,29.94,29.90,29.86,10,10,10,14,10,20,0.00,2,Rain-Thunderstorm,210
2013-6-3,78,72,66,66,62,52,94,73,50,29.98,29.90,29.86,10,9,1,10,4,21,0.08,4,Rain,313
2013-6-4,75,65,55,54,44,37,72,49,27,30.15,30.09,29.99,10,10,10,9,5,,0.00,0,,336
2013-6-5,80,66,53,54,46,34,82,49,26,30.21,30.14,30.08,10,10,10,12,3,16,0.00,1,,135
2013-6-6,71,66,62,63,58,52,94,77,57,30.10,30.02,29.91,10,9,4,13,7,18,0.27,5,Rain,142
2013-6-7,69,66,62,68,64,61,100,94,88,29.91,29.77,29.65,10,6,1,12,5,20,0.27,8,Rain-Thunderstorm,42
2013-6-8,78,71,64,64,61,59,94,77,51,30.13,29.94,29.73,10,9,5,10,6,,0.00,4,,293
2013-6-9,82,71,60,68,61,55,88,69,47,30.23,30.17,30.13,10,10,7,8,2,,0.00,4,Rain,138
2013-6-10,82,75,68,79,69,64,100,90,78,30.15,29.98,29.81,10,7,1,14,5,23,0.32,6,Rain-Thunderstorm,158
2013-6-11,80,72,64,70,65,63,100,79,58,29.87,29.83,29.80,10,9,4,17,8,25,0.00,3,Rain,255
2013-6-12,86,76,66,72,66,63,94,73,51,29.90,29.88,29.83,10,10,7,13,5,17,0.00,1,Rain,290
2013-6-13,82,73,64,70,67,63,94,79,54,29.86,29.66,29.49,10,8,1,31,9,37,0.25,2,Rain-Thunderstorm,195
2013-6-14,78,68,57,57,53,48,94,61,34,30.00,29.89,29.70,10,10,10,14,7,22,0.00,4,Rain,337
2013-6-15,82,70,57,63,53,43,94,57,26,30.10,30.05,30.00,10,10,10,12,4,18,0.00,0,,290
2013-6-16,80,71,62,70,59,46,88,65,43,30.06,29.97,29.91,10,10,7,15,3,23,0.04,2,Rain,246
2013-6-17,86,77,68,68,64,63,83,66,45,29.99,29.95,29.91,10,10,10,13,6,,0.00,1,Thunderstorm,246
2013-6-18,77,72,66,72,66,34,94,86,27,29.96,29.90,29.82,10,8,0,8,2,,0.12,4,Fog-Rain-Thunderstorm,141
2013-6-19,78,69,60,63,57,34,94,69,32,30.19,30.06,29.93,10,9,2,8,2,,0.10,4,Rain-Thunderstorm,17
2013-6-20,82,71,60,66,57,34,94,66,23,30.30,30.26,30.19,10,9,1,13,3,16,0.00,3,,171
2013-6-21,86,72,57,57,50,34,88,49,18,30.33,30.30,30.27,10,10,1,10,2,,0.00,0,,162
2013-6-22,89,76,62,72,64,59,94,69,40,30.29,30.24,30.16,10,10,10,10,4,17,0.00,1,,199
2013-6-23,87,76,66,73,68,63,94,74,51,30.23,30.17,30.11,10,10,7,8,1,,0.02,1,Rain,200
2013-6-24,89,80,71,72,67,63,88,73,49,30.16,30.12,30.06,10,10,10,17,3,22,0.00,0,Thunderstorm,241
2013-6-25,91,80,69,72,68,64,88,70,43,30.08,30.01,29.92,10,10,2,13,4,28,0.14,1,Rain-Thunderstorm,245
2013-6-26,87,76,66,72,67,63,94,76,49,29.96,29.91,29.85,10,10,10,12,2,,0.00,1,Rain-Thunderstorm,238
2013-6-27,89,79,69,73,70,66,94,80,52,29.87,29.75,29.64,10,10,2,15,3,21,0.01,2,Rain-Thunderstorm,180
2013-6-28,91,80,69,75,68,64,100,79,46,29.65,29.59,29.52,10,10,2,14,7,18,0.08,2,Rain-Thunderstorm,243
2013-6-29,71,68,66,64,64,63,94,87,73,29.62,29.58,29.55,10,10,10,7,2,,0.00,3,Rain,238
2013-6-30,,,,,,,,,,,,,,,,,,,,,,